Weather History for KBJC - May, 2013

Change the Weather History Date:

Friday, May 17, 2013

  Actual Average Record
Temperature  
Mean Temperature 70 °F -  
Max Temperature 86 °F 68 °F 87 °F (1988)
Min Temperature 53 °F 44 °F 35 °F (1990)
Cooling Degree Days 4    
Growing Degree Days 20 (Base 50)    
Moisture  
Dew Point 32 °F    
Average Humidity 38    
Maximum Humidity 77    
Minimum Humidity 5    
Precipitation  
Precipitation 0.00 in - - ()
Sea Level Pressure  
Sea Level Pressure 29.89 in    
Wind  
Wind Speed 6 mph (WNW)    
Max Wind Speed 20 mph    
Max Gust Speed 22 mph    
Visibility 10 miles    
Events      
Averages and records for this station are not official NWS values.
T = Trace of Precipitation, MM = Missing Value Source: NWS Daily Summary

Daily Weather History Graph

Daily Weather History Graph

Search for Another Location

Airport or City:

Trip Planner

Search our weather history database for the weather conditions in past years. The results will help you decide how hot, cold, wet, or windy it might be!

Date:

Astronomy

May. 17, 2013 Rise Set
Actual Time 5:43 AM MDT 8:10 PM MDT
Civil Twilight 5:12 AM MDT 8:41 PM MDT
Nautical Twilight 4:34 AM MDT 9:20 PM MDT
Astronomical Twilight 3:52 AM MDT 10:02 PM MDT
Moon 12:18 PM MDT (5/17) 1:04 AM MDT (5/17)
Length of Visible Light 15h 29m
Length of Day
14h 27m
Waxing Crescent, 46% of the Moon is Illuminated
May 17
Waxing Crescent
May 17
First Quarter
May 24
Full
May 31
Last Quarter
Jun 8
New

Hourly Weather History & Observations

Time (MDT) Temp. Dew Point Humidity Pressure Visibility Wind Dir Wind Speed Gust Speed Precip Events Conditions
12:15 AM 60.8 °F 42.8 °F 52% 29.93 in 10.0 mi North 5.8 mph - N/A   Clear
12:35 AM 60.8 °F 44.6 °F 55% 29.93 in 10.0 mi North 5.8 mph - N/A   Clear
12:55 AM 60.8 °F 44.6 °F 55% 29.93 in 10.0 mi NNW 8.1 mph - N/A   Clear
1:15 AM 59.0 °F 44.6 °F 59% 29.93 in 10.0 mi Calm Calm - N/A   Clear
1:34 AM 59.0 °F 44.6 °F 59% 29.93 in 10.0 mi NE 4.6 mph - N/A   Clear
1:55 AM 59.0 °F 44.6 °F 59% 29.92 in 10.0 mi Calm Calm - N/A   Clear
2:15 AM 57.2 °F 44.6 °F 63% 29.92 in 10.0 mi WSW 5.8 mph - N/A   Clear
2:34 AM 55.4 °F 44.6 °F 67% 29.92 in 10.0 mi WSW 4.6 mph - N/A   Clear
2:54 AM 53.6 °F 46.4 °F 77% 29.92 in 10.0 mi West 9.2 mph - N/A   Clear
3:15 AM 53.6 °F 44.6 °F 72% 29.93 in 10.0 mi West 8.1 mph - N/A   Clear
3:35 AM 53.6 °F 42.8 °F 67% 29.92 in 10.0 mi West 9.2 mph - N/A   Clear
3:54 AM 53.6 °F 39.2 °F 58% 29.92 in 10.0 mi West 6.9 mph - N/A   Clear
4:15 AM 57.2 °F 35.6 °F 44% 29.92 in 10.0 mi West 4.6 mph - N/A   Clear
4:34 AM 57.2 °F 35.6 °F 44% 29.92 in 10.0 mi Calm Calm - N/A   Clear
4:55 AM 55.4 °F 37.4 °F 51% 29.92 in 10.0 mi Calm Calm - N/A   Clear
5:15 AM 57.2 °F 39.2 °F 51% 29.92 in 10.0 mi NW 9.2 mph - N/A   Clear
5:35 AM 59.0 °F 35.6 °F 42% 29.92 in 10.0 mi NW 6.9 mph - N/A   Clear
6:46 AM 55.4 °F 39.2 °F 54% 29.94 in 50.0 mi Calm Calm - N/A   Mostly Cloudy
7:47 AM 60.8 °F 41.0 °F 48% 29.95 in 50.0 mi Calm Calm - N/A   Scattered Clouds
8:47 AM 64.4 °F 39.2 °F 40% 29.94 in 40.0 mi Calm Calm - N/A   Scattered Clouds
9:55 AM 71.6 °F 37.4 °F 29% 29.93 in 50.0 mi Variable 3.5 mph - N/A   Partly Cloudy
10:47 AM 75.2 °F 33.8 °F 22% 29.92 in 50.0 mi Variable 4.6 mph - N/A   Partly Cloudy
11:47 AM 80.6 °F 19.4 °F 10% 29.90 in 50.0 mi Variable 3.5 mph - N/A   Partly Cloudy
12:08 PM 80.6 °F 19.4 °F 10% 29.90 in 40.0 mi ESE 13.8 mph - N/A   Partly Cloudy
1:45 PM 82.4 °F 14.0 °F 8% 29.86 in 50.0 mi ESE 8.1 mph 20.7 mph N/A   Scattered Clouds
2:49 PM 84.2 °F 10.4 °F 6% 29.83 in 50.0 mi ENE 8.1 mph 21.9 mph N/A   Scattered Clouds
3:54 PM 86.0 °F 6.8 °F 5% 29.81 in 50.0 mi SSE 15.0 mph - N/A   Mostly Cloudy
5:46 PM 82.4 °F 12.2 °F 7% 29.79 in 40.0 mi SSW 8.1 mph - N/A   Mostly Cloudy
6:47 PM 75.2 °F 32.0 °F 21% 29.78 in 40.0 mi West 8.1 mph - N/A   Mostly Cloudy
7:50 PM 75.2 °F 35.6 °F 24% 29.80 in 50.0 mi WNW 12.7 mph - N/A   Mostly Cloudy
8:50 PM 73.4 °F 12.2 °F 10% 29.82 in 30.0 mi West 19.6 mph - N/A   Scattered Clouds
9:54 PM 69.8 °F 12.2 °F 11% 29.85 in 30.0 mi WNW 11.5 mph - N/A   Scattered Clouds
11:15 PM 64.4 °F 15.8 °F 15% 29.85 in 10.0 mi West 17.3 mph - N/A   Clear
11:35 PM 68.0 °F 14.0 °F 12% 29.86 in 10.0 mi West 13.8 mph 17.3 mph N/A   Clear
11:55 PM 66.2 °F 14.0 °F 13% 29.86 in 10.0 mi West 13.8 mph - N/A   Clear